TIMESTAMP,CO2_1_1_1,H2O_1_1_1,TAU_1_1_1,TAU_SSITC_TEST_1_1_1,H_1_1_1,H_SSITC_TEST_1_1_1,LE_1_1_1,LE_SSITC_TEST_1_1_1,FC_1_1_1,FC_SSITC_TEST_1_1_1,WD_0_0_1,WS_0_0_1,WS_MAX_0_0_1,U_SIGMA_0_0_1,V_SIGMA_0_0_1,W_SIGMA_0_0_1,USTAR_0_0_1,MO_LENGTH_0_0_1,ZL_0_0_1,FETCH_MAX_0_0_1,FETCH_70_0_0_1,FETCH_80_0_0_1,FETCH_90_0_0_1,PA_0_0_1,RH_0_0_1,TA_0_0_1,VPD_0_0_1,T_SONIC_0_0_1,T_SONIC_SIGMA_0_0_1
[yyyymmddHHMMSS],[mmolCO2 mol-1],[mmolH2O mol-1],[kg m-1 s-2],[#],[W m-2],[#],[W m-2],[#],[umolCO2 m-2 s-1],[#],[Decimal degrees],[m s-1],[m s-1],[m s-1],[m s-1],[m s-1],[m s-1],[m],[#],[m],[m],[m],[m],[kPa],[%],[deg C],[hPa],[deg C],[deg C]
20211008003000,427.30636664603151,16.261081957997689,0.21589520959191394,0,-9.5104267340835325,0,4.3549137528557376,0,2.2291835059256422,0,117.33627433664734,2.5924098568889162,6.6248267145621487,0.89762928704832434,0.79041266692921341,0.57911585099611584,0.43847395072364309,741.30501146770246,2.5630475588424916E-002,100.22996438888741,183.25234161046376,219.30624960661504,274.54540068120110,94.126755732204870,78.871034482758617,17.076206896551696,4.1014715681735421,17.669216674804716,0.17916916368523986
20211008010000,428.34416762830494,16.215869644238285,0.15432820726272001,0,-2.2818396510813823,1,12.903032148396719,0,1.7414151650391929,0,106.06117022243593,1.8870192034600748,5.2400065209108382,0.75454145729962052,0.57133376000687930,0.44605438444028633,0.37047122466962673,1863.6729296601159,1.0194921918764518E-002,107.93150540568331,197.33321486969200,236.15745859270032,295.64111469457816,94.136532353081591,80.440333333333328,16.723333333333358,3.7128081433656122,17.312195944892039,9.4365548163157620E-002
20211008013000,430.03152296916312,16.178768257799973,0.11970256266358280,0,-1.5755735058830842,0,3.0490215343792637,1,1.7596796084004631,0,106.66864644541891,1.8042043498020108,5.1284108644140263,0.80639794961400424,0.52412565145159162,0.41006464803600662,0.32614089397675222,1841.4301704310544,1.0318067068246390E-002,104.25508377452179,190.61154359338846,228.11333481376323,285.57082627380146,94.133981741168171,81.496666666666670,16.481666666666683,3.4587445633600171,17.072388900685610,5.1930591491268441E-002
20211008020000,430.87643870047270,16.316407165543932,9.5145758736493821E-002,1,-4.3625850054204411,0,7.2527635246260047,1,3.5631275855205407,0,99.542108351995381,1.3544669784406898,3.2990477444332407,0.54265422871257352,0.50455972588789699,0.34884656081753967,0.29072316484510452,471.06632956240276,4.0334022636790992E-002,108.22586196235824,197.87139253550239,236.80151980618163,296.44740290677288,94.133763746310763,82.753333333333330,16.374333333333311,3.2018878070800727,16.998199511210146,4.2645055462062313E-002
20211008023000,430.77902633749346,16.345266788591065,5.5833295115993449E-002,0,-3.1746687701933860,0,3.6940335702619076,0,2.4021618296835938,0,81.130272181558169,1.3867776267002383,3.3425040951310008,0.52583718884731168,0.42578087754296323,0.33314502770500976,0.22270494112583408,290.94411404296460,6.5304637842559049E-002,90.726073057198406,165.87619714546094,198.51144261122698,248.51276992454044,94.112448564236118,83.256666666666661,16.303333333333342,3.0944143752530979,16.937719888475215,6.8986871406359868E-002
20211008030000,431.78222260886986,16.364089479938446,6.9501911599694613E-002,1,-4.0047248481063749,1,1.5815457733520870,1,2.2601938150481029,0,90.159906766721306,1.3822447991739912,3.1974548473655937,0.46370739121245008,0.46564712794449165,0.31592404677382058,0.24838012014511854,319.94287309117698,5.9385601612027161E-002,103.29569428761164,188.85747362973356,226.01416106298808,282.94290983484996,94.105382339409729,84.650000000000006,16.060000000000002,2.7932139719179871,16.711465253194206,9.9537001899356645E-002
20211008033000,432.33354519633525,16.376719190458161,0.10905786516756706,0,-12.354691845618349,0,0.45221958900157078,0,2.7036088051785496,0,112.51973765158608,1.6353380249281988,4.9034089246575006,0.61922139705356494,0.50252775833894792,0.35635039534929536,0.31101276003719175,203.58294696937833,9.3328052682417756E-002,112.29894330793584,205.31828427788588,245.71354725912488,307.60420373820875,94.088790371527779,86.213333333333338,15.783000000000015,2.4647115782087874,16.437806077745222,0.12167173406899960
20211008040000,433.19658091901005,16.438953363807773,4.1304915096179180E-002,0,-6.5260693353224735,0,-0.35960136601621639,2,1.0844675508577926,0,121.53295169516591,1.4743813374812036,4.0693027171559741,0.56924987343339939,0.43347116347280873,0.30701451277315828,0.19133324736479038,89.731730100130136,0.21174226752117917,88.914540636397447,753.00000000000000,1348.0000000000000,3481.0000000000000,94.084173280815975,87.843333333333334,15.548999999999978,2.1409815121043745,16.218956129286028,7.1337309749698721E-002
20211008043000,433.44587130755531,16.362053485473872,0.16687237094104884,0,-3.7772775485604932,2,3.3451600109204840,1,3.3243158907007420,1,132.56181894940568,2.0154297492937325,5.2211681296692785,0.80145535111374233,0.64983558041640466,0.48749939685195676,0.38458254734643338,1258.7786610918990,1.5093995940095521E-002,103.57794517049969,189.37351826295495,226.63173468931569,283.71603873105965,94.065776288194442,87.626666666666665,15.511333333333312,2.1738839325070058,16.141552497016107,8.6277182183903497E-002
20211008050000,435.01646811129802,16.384679739184548,0.13376765734665796,0,-6.0003715482158242,0,-6.5420677921104868,1,4.1610153755834540,0,130.80364780275787,2.3613371540882779,5.8881378803755711,0.89320975191829177,0.71010989597710661,0.52393758304868066,0.34419147583976356,568.02391604191359,3.3449295819083118E-002,89.468745185726064,163.57740079225229,195.76037049721714,245.06875409189303,94.061244898021201,89.140000000000001,15.265333333333331,1.8781157469955747,15.925753285473320,0.11114298995067735
20211008053000,436.83432217657219,16.758984115395858,0.13941664434760978,0,-9.8366793528623990,0,4.6350769774821377,0,3.5395322972908128,0,127.96336405413703,2.6361520238277913,5.4718490502123123,0.87561374152535254,0.68859142834418929,0.51670865068952399,0.35111232646486368,367.84574387428216,5.1652086007262836E-002,91.921091987046850,168.06107288096339,201.12618084157427,251.78611191280953,94.063202473524299,94.043333333333337,14.784666666666681,0.99875556660587339,16.388058712429483,7.6880515727132892E-002
20211008060000,437.48645355483393,16.963655713841110,0.19299158205015185,0,-18.006928744488960,1,4.8459063964084370,1,3.5342139719389865,0,125.26480771776136,2.5117613535162615,5.7661383663791606,0.98594558540007826,0.69759575588474554,0.53935820072689433,0.41305671994145904,327.15635548005002,5.8076206320737726E-002,101.14882084703544,184.93230427019503,221.31673584186314,277.06229087475612,94.055599181423602,95.859999999999999,14.675000000000011,0.68926067312542727,16.180988108317024,0.20338850218568288
20211008063000,438.00247852846121,17.144963449265809,0.10002488360483466,0,-7.8510677946762337,0,-0.46517269469097200,2,3.5007630327339134,0,130.49989298515237,2.3436496993533362,5.8221251272882988,0.72387945580947755,0.60174035978450691,0.43241608524833813,0.29734269701776384,279.86946600967860,6.7888792124764799E-002,92.798135041076989,169.66458730226589,203.04517806057567,254.18846871450532,94.035412277480276,97.686666666666667,14.543999999999983,0.38189801498494264,15.854813081775603,0.33927086309408278
20211008070000,437.07813923103322,17.367153519370166,7.4110997467728659E-002,0,-6.5911074907241352,1,0.33329411693819105,2,4.1548680064425350,0,123.77640669293277,2.3625208179520403,11.928040658570104,0.79778109402752806,0.60859891168745162,0.48306660333435336,0.25597744583827164,212.68909168737278,8.9332272987124789E-002,75.337403798825918,137.74080177682430,164.84056023521319,206.36082072202458,94.025927661159983,98.799999999999997,14.566333333333318,0.19838875450882598,17.375335535234512,0.87517512466282765
20211008073000,436.55004255296654,17.387561623748148,5.4939155060590161E-002,1,0.72888738968821642,2,0.24212045558057474,2,4.8091692308255505,1,123.41357292891897,2.2019151766314704,5.3071626757677706,0.73444982044204377,0.51927636021986812,0.46949920964103725,0.22041509386570513,-1227.7042657318393,-1.5476039735574288E-002,68.381728207475447,125.02360839688689,149.62132777593803,187.30814766283422,94.004777292317712,98.983333333333334,14.552333333333308,0.16792741243867795,17.619734787835114,0.44029504293470956
20211008080000,436.82525560524778,17.361671838017529,0.14900908030831958,0,-16.459196913288629,0,-1.7625288200509208,2,4.1712652263323289,0,128.85391334026423,2.0684095152110449,18.052271767309104,0.86046237196323649,0.51394153710678525,0.52302736662305171,0.36300787357527442,242.83370857985736,7.8242844089134081E-002,93.490655568378145,170.93073569426633,204.56043430698864,256.08538972816712,93.987067828662902,99.066666666666663,14.513333333333321,0.15377486326714007,17.359741661509815,1.0304517798888047
20211008083000,437.12765025770227,17.359486054320083,7.9381142450819273E-002,0,-21.139104380526799,0,-0.53771865941610042,0,3.6037072322220380,0,128.94728826676754,2.2521861468801974,5.0457154782999663,0.71285509176713391,0.51863255701138389,0.40053696789693366,0.26496965605427514,73.522573719573373,0.25842403276671161,89.970001710288230,164.49385758672085,196.85713521386472,246.44177337029998,93.971803475260415,99.099999999999994,14.503666666666675,0.14819029387789215,17.856816333558868,0.18879066447175838
20211008090000,437.94585206430156,17.307036676642173,8.7427623319628625E-002,0,-24.290075027673407,0,-1.1450051546852313,1,3.5307464617530688,0,132.66095546735954,2.0099448804784257,4.5590642895197666,0.75832893580578931,0.52668295632156481,0.39830629619022329,0.27807372064385699,73.943191221572320,0.25695401680820218,93.931037831820376,171.73589492455784,205.52400426511082,257.29166497436529,93.951457382378479,99.156666666666666,14.444666666666649,0.13833117386019239,17.728842554728203,0.20664003165133060
20211008093000,439.52451925345804,17.353975111759297,0.10764470401356581,0,-30.460311474099338,0,-0.24860812130075380,1,1.6820504933358618,0,124.41124274736364,1.9487692047289669,4.0450198478157580,0.69947362257852519,0.56799346171570309,0.39387484345587243,0.30858516720387441,80.576503064156768,0.23580075180070531,103.00738035809022,188.33034381355685,225.38332130385814,282.15317331458829,93.941348125651047,99.280000000000001,14.465666666666664,0.11826138634832205,17.681632998996292,0.20447303678070763
20211008100000,442.38187219562184,17.362604709218854,0.12073786405030433,0,9.3097200846923656,0,0.57368903881316413,1,5.6749119420806275,0,130.63742765015235,1.5263542166006672,3.8811617174202762,0.64576056388138137,0.44959990158802232,0.37107053147804148,0.32682389905824250,-313.17724096130132,-6.0668520936193418E-002,113.12035836517779,206.82009297941997,247.51082870756676,309.85418683848280,93.931418031032990,99.406666666666666,14.451999999999998,9.7370067768667926E-002,18.124812728034158,0.15403104005276139
20211008103000,442.82537201522962,17.402513222948237,1.8514218123748962,1,206.69237169426782,0,-0.63788023401664773,1,9.8218334743083648,0,129.10504782751352,2.3650833459817604,12.033942711477678,1.8986890994736543,0.67519862755863869,1.1013739132821778,1.2798640692547190,-847.14122415293059,-2.2428373756687842E-002,141.20112234628738,258.16068543721423,308.95240530926850,386.77174982110245,93.931442797960074,99.500000000000000,14.473000000000013,8.2164907088933883E-002,18.709898774888870,0.99867678606550003
20211008123000,444.03551786610467,17.663159722455568,3.3145503882371736,1,-179.13643287470225,2,1.3829410721351076,2,5.3970142914351396,1,133.59494325707615,2.1811045353039660,20.145349960636832,2.7299352095245877,0.84824933681054360,1.2143753026814572,1.7131629950494791,2344.2454055823578,8.1049534979380777E-003,164.89652624709473,301.48344102935420,360.79867896689103,451.67713213780326,93.925585598634555,99.780000000000001,14.658666666666647,3.6588783308891377E-002,21.988915546530450,3.2072053046272710
20211008140000,441.29733617641165,17.721075938469255,9.2320282749421279E-002,0,2.6739781617690399,1,-0.40873879535456248,2,3.8721243103116518,0,146.66220651262537,1.6756330226267357,4.2196271600257544,0.62169711691877960,0.47525507001415757,0.39554897617649626,0.28590512567436183,-730.10421663213185,-2.6023682054110479E-002,96.576673215657337,176.57296018834012,211.31273598215179,264.53847016820623,93.950139699652780,99.799999999999997,14.710333333333324,3.3373630284438606E-002,21.920958208719924,0.16971109204599188
20211008143000,440.91780901432884,17.897791133005374,8.5740402002501506E-002,0,8.8860978270220237,0,4.4612660777138080,1,3.6574641888714510,0,153.79357684382799,1.8360700788977649,4.4387635773007705,0.62212168895723641,0.60340531175920120,0.46614066318695041,0.27560626032401031,-196.81586395832349,-9.6536933648922338E-002,82.238005821049668,150.35730310758407,179.93929002873091,225.26263874305317,93.953842886284718,99.796666666666667,14.865333333333353,3.4270702570770480E-002,22.138306147257481,0.17680321080304104
20211008150000,440.86891185992943,17.962172581646744,0.11873770674551198,0,19.165359515557377,2,14.840090218675465,1,4.8916627020304508,1,150.93053815898406,1.4710738052700687,4.8321129012226907,0.69594319328495036,0.50749000847103787,0.37781650298143432,0.32435782499654425,-148.76240979388643,-0.12772043708034117,110.82804294338574,202.62900929187802,242.49517195128877,303.57517975910508,93.962209573784733,99.756666666666661,14.928666666666686,4.1180180081528309E-002,22.511598157247022,0.29978401592526771
20211008153000,439.03605535630049,18.232108808868897,0.10321315789003278,0,-6.0665500501248744,2,28.187886154837830,0,4.8177165563799518,0,152.63731207542486,1.4633032003418467,4.1611070381769730,0.69414308618791665,0.71853517059282479,0.41144315011814775,0.30257267658356168,381.48417908752339,4.9805473048571317E-002,97.919862814252525,179.02873916292268,214.25167620002526,268.21767457365070,93.952931289279519,99.629999999999995,15.178666666666686,6.3631961592459443E-002,22.986312047322713,0.32451128795652961
20211008160000,436.52140813021532,18.603871844469097,0.23166304728508591,0,-28.533419125023123,2,69.432872446079415,0,3.5114666888324342,0,134.18588087577376,1.6400570114346158,4.5672286499542789,0.82891054607745474,0.60304484618976339,0.49815925040250331,0.45375647349024339,273.54542804419208,6.9458298520458150E-002,116.20333907392404,212.45676498127366,254.25648546766877,318.29894863337967,93.938731990535928,98.500000000000000,15.668666666666695,0.26620704256704586,21.077231130658788,0.85332457206647661
20211008163000,435.24264947602052,18.306376167712376,0.11548625273305106,0,16.015331296833686,0,23.233518695879912,0,1.8961869040991792,0,155.05627599470444,1.8560621912403970,6.3580585712064543,0.92947823308038924,0.72597660159257271,0.52522814910795190,0.32044985803150411,-171.64035252559242,-0.11069657991506984,84.330479886272826,154.18301305918635,184.51768774084337,230.99424938618142,93.933394498914936,95.993333333333339,15.818666666666672,0.71792820990743400,20.598747106764051,0.17938384000404936
20211008170000,432.55689603862311,17.910347672302425,0.24573183385510544,0,65.927039823864220,1,93.650521390991884,0,4.4017527860257823,1,167.33078788587309,1.9007359764606599,5.7353741439814101,1.0058516631001670,0.78237279763049938,0.60234150676850429,0.46773373928882284,-129.63699243461249,-0.14656310396574029,102.27738735807425,186.99568379020153,223.78607413282816,280.15360939270306,93.918067334635424,91.766666666666666,16.178666666666686,1.5095947768348925,19.130979496426107,0.61601516307183413
20211008173000,429.18913110296239,17.277975171546554,0.22559269263678364,0,38.264030702454775,1,92.736448663881504,0,2.2470857424090167,0,171.70296845281271,1.9629949314870414,6.0938326266624800,1.0106377280434737,0.66239921148690950,0.56351628691933808,0.44829525570386547,-196.62474705138382,-9.6630766396026135E-002,104.27520105272971,190.64832439402934,228.15735203818281,285.62593061550092,93.914126238921767,87.203333333333333,16.414333333333332,2.3817930212913598,19.061342302608409,0.48857170045356912
20211008180000,428.78868903631985,17.642774008481375,0.39179986797552968,0,44.744868822570922,1,150.64353557740330,1,3.1259770761093222,0,168.19935488501585,1.6539746081003137,6.6084635023640494,1.2259713866232500,0.76066798822130688,0.64390117678341996,0.59136149922340930,-385.88995334494575,-4.9236835101057849E-002,116.97201243461393,213.86214504040919,255.93836645937847,320.40446405574141,93.877750883463534,86.736666666666665,16.821333333333314,2.5333545987993649,18.157434137980090,0.45610400583357219
20211008183000,427.74034262452057,17.313076306072041,0.30266393622182469,0,81.573748311226822,0,169.32695319815363,0,6.1452591066674147,0,153.96029170315342,1.7398326914618707,4.9367661996331185,0.92758032157478576,0.83424624735719155,0.57718231263946529,0.52018222566700012,-144.02866303173542,-0.13191818628361163,115.22027181991673,210.65940450772868,252.10550403310569,315.60617512204908,93.849661629557289,82.840000000000003,17.244333333333316,3.3666706030685170,17.913190996805838,0.26618413112926165
20211008190000,428.25347434854234,17.090782906535651,0.25337576490518510,0,55.645828417968616,0,122.07507690511055,0,-1.5181332981089795,1,159.96943509147178,2.0611405506992049,5.4807442766441232,0.89055132083043165,0.83485782704436295,0.59301930037885209,0.47621764587890497,-161.95787683248565,-0.11731445466929562,105.06165174668124,192.08620708815678,229.87813038268905,287.78014090783608,93.819488910807294,80.404333333333327,17.507000000000005,3.9088777452030059,17.977096262613941,0.19673345453026214
20211008193000,428.87077058104916,17.455817172859234,0.33496194174705834,0,98.901516883788602,0,174.44231037625551,0,6.2272109145444903,0,143.33308442436032,1.6988048025224549,5.1507006586081756,1.0244067215729118,0.98087213971037224,0.59881594538652338,0.54811788304820641,-138.92250292725475,-0.13676689952778306,116.65930697633533,213.29041973038522,255.25415728396146,319.54791535933367,93.790308789279521,79.668666666666667,17.983333333333348,4.1791979419842553,18.455226400587321,0.27839660416030021
20211008200000,426.57829036441296,17.138278161906161,0.15616714474620055,1,68.228530097394412,0,112.57369309354698,0,2.9993828088229546,0,157.80656038546454,1.6597122990934079,4.3020496602645402,0.81225512876678629,0.78635584586975549,0.48349458458302152,0.37462632365644044,-64.275838090840324,-0.29560096864310836,102.09870670778156,186.66899857419597,223.39511536583788,279.66417540928626,93.755610286241307,75.771333333333331,18.483999999999980,5.1393183122942903,18.942722721523694,0.30254374095409120
20211008203000,425.46722172458368,17.100465067766940,0.12875478129481471,1,61.716883824663228,0,111.00093065312781,0,4.8952562545912901,0,145.62483162268344,1.1302853435124769,3.5553644279221155,0.57344485756805230,0.64363196110601761,0.48010400688535759,0.34037611137770035,-53.287853064832554,-0.35655405326395284,95.094170240510948,173.86247192969944,208.06897380491961,260.47766484113419,93.736345385815440,74.125666666666660,18.796333333333337,5.5967121980181949,19.292836655075121,0.20434995680877457
20211008210000,425.21065437850490,17.216989714332904,0.13736795861254344,1,29.547082411373140,0,95.381118979968349,1,6.7480615427899240,1,134.70964777144471,0.99543358148660910,2.8598820585571993,0.57061709119666870,0.48635050238638339,0.38848892732677293,0.35157146178720960,-122.64451987314206,-0.15491927417264742,115.60134192847995,211.35612220225980,252.93929716927735,316.64998518704311,93.723827459127406,74.904333333333327,18.735666666666702,5.4077363442812612,19.328975150410088,0.14138399952387473
20211008213000,426.33451618999180,17.592741105421151,5.5746117389143368E-002,1,20.536393187335680,0,110.43890400829783,1,20.597737708479457,1,149.16643925747232,0.50155170879347544,1.7365218704605472,0.33499173081312944,0.34887337033479321,0.31400788863997181,0.22403740891707244,-45.662316612111361,-0.41609803027296444,95.578208473097675,174.74744819494433,209.12806436832579,261.80352055026054,93.714429162760410,75.957999999999998,18.855999999999995,5.2197959586657934,19.476272513495587,0.10739262110154806
20211008220000,426.63718389691059,17.528736905410849,3.0023929396650335E-002,1,13.253817709524215,0,149.10917501486102,1,19.403166277951406,1,191.15569286355478,0.36244733271617824,1.5795417295085283,0.29392152447008679,0.31093951969547773,0.28254025895986989,0.16443726913853685,-27.974206387154485,-0.67919710525638488,9.5256670867997446,36.000000000000000,52.000000000000000,91.000000000000000,93.708948605047169,75.386333333333340,18.917666666666662,5.3645322619977085,19.437466692863552,0.11669406199056824
20211008223000,424.90352143801812,17.136421394263490,2.8877393777838222E-002,1,19.911217746194691,0,32.610443783399091,0,0.53454848260945387,0,96.670291226570740,1.0587750217555536,2.0292035679425751,0.29426887228757526,0.23677096604247563,0.22937865125562262,0.16125705418772063,-17.558265935952985,-1.0821114151765332,53.318791612733044,170.00000000000000,234.00000000000000,386.00000000000000,93.695490966796882,73.846666666666664,18.883333333333326,5.6878935005159592,19.355871498107945,0.14996216741194290
20211008230000,425.60523817099732,17.238151518224228,2.3339829704932452E-002,1,1.9334439094012645,0,9.3152484147499486,0,0.29912403735513071,0,93.452957837150393,1.1958461645572527,2.5868117699354687,0.28937641978106676,0.25178612867137368,0.17552551737736324,0.14490804827102172,-131.21268784272874,-0.14480306982792213,115.58684174855047,435.00000000000000,626.00000000000000,1109.0000000000000,93.695870995008676,75.567333333333337,18.609666666666669,5.2235336752970918,19.219881755405027,6.6027243562710294E-002
20211008233000,425.40530656684280,17.345205542093240,2.7730000915509824E-003,2,-0.33839524763060264,1,0.63113222673554503,1,0.18997828879558312,1,92.850566148760493,0.48505784657092216,1.4481618151542484,0.56645290777809476,0.11880140530019064,5.0473437402107142E-002,4.9933120832597336E-002,30.678448308565859,0.61932728177438268,137.60580176459956,1262.0000000000000,2309.0000000000000,6205.0000000000000,93.712374961588552,76.695666666666668,18.474666666666678,4.9403615275160995,19.244936844719803,4.0764799524934447E-002
20211009000000,425.65732166840769,17.372925385232492,3.3418684227633157E-003,1,1.6877047875000906,2,-3.8278169342939612,2,-0.47552244807115929,2,65.011077331319896,0.61515775918298909,1.0593388761630351,0.24971306520361752,8.4881758576496505E-002,4.6633914230365135E-002,5.4785524068397463E-002,-8.1252941193927448,-2.3383768908318596,82.880410572152925,245.00000000000000,333.00000000000000,534.00000000000000,93.726549709852435,78.213999999999999,18.189999999999998,4.5367522772172677,19.027610809326234,0.18595401472462234
